| time (UTC) | temp C | wind direction | speed KPH | gust KPH | rain 1hr cm | rain 24hr cm | rain mn cm | humidity % | barometer mb |
| 20260509154121 | 18 | 105 | 3.2 | 6.4 | 0.00 | 0.00 | 0.00 | 76 | 1010.2 |
| 20260509153121 | 17 | 146 | 3.2 | 6.4 | 0.00 | 0.00 | 0.00 | 77 | 1010.5 |
| 20260509152121 | 18 | 143 | 4.8 | 6.4 | 0.00 | 0.00 | 0.00 | 75 | 1010.4 |
| 20260509151121 | 18 | 207 | 4.8 | 6.4 | 0.00 | 0.00 | 0.00 | 74 | 1010.4 |
| 20260509150122 | 18 | 215 | 4.8 | 9.7 | 0.00 | 0.00 | 0.00 | 74 | 1010.4 |
| 20260509145126 | 18 | 240 | 4.8 | 9.7 | 0.00 | 0.00 | 0.00 | 75 | 1010.4 |
| 20260509144125 | 18 | 272 | 4.8 | 8.0 | 0.00 | 0.00 | 0.00 | 74 | 1010.4 |
| 20260509143125 | 17 | 233 | 4.8 | 9.7 | 0.00 | 0.00 | 0.00 | 75 | 1010.5 |
| 20260509142122 | 17 | 239 | 3.2 | 6.4 | 0.00 | 0.00 | 0.00 | 77 | 1010.6 |
| 20260509141123 | 16 | 191 | 3.2 | 6.4 | 0.00 | 0.00 | 0.00 | 78 | 1010.5 |
| 20260509140122 | 16 | 144 | 3.2 | 6.4 | 0.00 | 0.00 | 0.00 | 79 | 1010.6 |
| 20260509135131 | 15 | 143 | 3.2 | 8.0 | 0.00 | 0.00 | 0.00 | 80 | 1010.6 |
| 20260509135122 | 15 | 148 | 3.2 | 8.0 | 0.00 | 0.00 | 0.00 | 80 | 1010.6 |
| 20260509134122 | 15 | 130 | 3.2 | 6.4 | 0.00 | 0.00 | 0.00 | 80 | 1010.6 |
| 20260509133125 | 16 | 132 | 4.8 | 11.3 | 0.00 | 0.00 | 0.00 | 78 | 1010.5 |
| 20260509132121 | 15 | 111 | 1.6 | 4.8 | 0.00 | 0.00 | 0.00 | 81 | 1010.7 |
| 20260509131121 | 15 | 144 | 3.2 | 6.4 | 0.00 | 0.00 | 0.00 | 84 | 1011.0 |
| 20260509130122 | 14 | 199 | 3.2 | 6.4 | 0.00 | 0.00 | 0.00 | 87 | 1011.0 |
| 20260509125121 | 14 | 210 | 1.6 | 6.4 | 0.00 | 0.00 | 0.00 | 87 | 1011.0 |
| 20260509124121 | 14 | 213 | 3.2 | 6.4 | 0.00 | 0.00 | 0.00 | 88 | 1011.1 |
| 20260509123122 | 14 | 176 | 3.2 | 4.8 | 0.00 | 0.00 | 0.00 | 89 | 1010.9 |
| 20260509122121 | 13 | 134 | 1.6 | 4.8 | 0.00 | 0.00 | 0.00 | 88 | 1011.1 |
| 20260509121121 | 13 | 226 | 1.6 | 4.8 | 0.00 | 0.00 | 0.00 | 88 | 1011.1 |
| 20260509120121 | 13 | 214 | 1.6 | 6.4 | 0.00 | 0.00 | 0.00 | 88 | 1011.2 |
| 20260509115121 | 13 | 207 | 3.2 | 6.4 | 0.00 | 0.00 | 0.00 | 88 | 1011.2 |
| 20260509114121 | 13 | 219 | 1.6 | 3.2 | 0.00 | 0.00 | 0.00 | 89 | 1011.1 |
| 20260509113121 | 12 | 177 | 1.6 | 4.8 | 0.00 | 0.00 | 0.00 | 90 | 1011.1 |
| 20260509112121 | 12 | 292 | 0.0 | 4.8 | 0.00 | 0.00 | 0.00 | 91 | 1011.1 |
| 20260509111142 | 12 | 228 | 1.6 | 4.8 | 0.00 | 0.00 | 0.00 | 93 | 1010.8 |
| 20260509110122 | 11 | 203 | 1.6 | 3.2 | 0.00 | 0.00 | 0.00 | 94 | 1010.9 |
| 20260509105121 | 11 | 142 | 1.6 | 3.2 | 0.00 | 0.00 | 0.00 | 95 | 1010.9 |
| 20260509104121 | 11 | 232 | 0.0 | 1.6 | 0.00 | 0.00 | 0.00 | 96 | 1010.8 |
| 20260509103122 | 11 | 221 | 0.0 | 3.2 | 0.00 | 0.00 | 0.00 | 97 | 1010.6 |
| 20260509102122 | 11 | 196 | 0.0 | 3.2 | 0.00 | 0.00 | 0.00 | 98 | 1010.6 |
| 20260509101122 | 11 | 141 | 0.0 | 3.2 | 0.00 | 0.00 | 0.00 | 99 | 1010.6 |
| 20260509100122 | 11 | 143 | 0.0 | 1.6 | 0.00 | 0.00 | 0.00 | 99 | 1010.6 |
| 20260509095122 | 11 | 113 | 0.0 | 1.6 | 0.00 | 0.00 | 0.00 | 99 | 1010.6 |
| 20260509094122 | 11 | 113 | 0.0 | 3.2 | 0.00 | 0.00 | 0.00 | 99 | 1010.4 |
| 20260509093122 | 11 | 207 | 1.6 | 4.8 | 0.00 | 0.00 | 0.00 | 99 | 1010.4 |
| 20260509092146 | 11 | 129 | 1.6 | 4.8 | 0.00 | 0.00 | 0.00 | 99 | 1010.7 |
| 20260509091123 | 11 | 110 | 1.6 | 4.8 | 0.00 | 0.00 | 0.00 | 99 | 1010.6 |
| 20260509090121 | 11 | 103 | 3.2 | 4.8 | 0.00 | 0.00 | 0.00 | 99 | 1010.7 |
| 20260509085121 | 11 | 169 | 0.0 | 3.2 | 0.00 | 0.00 | 0.00 | 98 | 1010.7 |
| 20260509084121 | 11 | 133 | 1.6 | 3.2 | 0.00 | 0.00 | 0.00 | 99 | 1010.6 |
| 20260509083122 | 11 | 135 | 1.6 | 4.8 | 0.00 | 0.00 | 0.00 | 99 | 1010.7 |
| 20260509082121 | 11 | 117 | 1.6 | 4.8 | 0.00 | 0.00 | 0.00 | 99 | 1010.7 |
| 20260509081142 | 11 | 80 | 1.6 | 4.8 | 0.00 | 0.00 | 0.00 | 98 | 1010.9 |
| 20260509080144 | 11 | 103 | 1.6 | 3.2 | 0.00 | 0.00 | 0.00 | 98 | 1011.0 |
| 20260509075144 | 11 | 107 | 1.6 | 3.2 | 0.00 | 0.00 | 0.00 | 97 | 1011.0 |
| 20260509074123 | 11 | 206 | 1.6 | 3.2 | 0.00 | 0.00 | 0.00 | 97 | 1011.0 |
| 20260509073121 | 11 | 175 | 1.6 | 4.8 | 0.00 | 0.00 | 0.00 | 97 | 1010.9 |
| 20260509072123 | 11 | 224 | 1.6 | 3.2 | 0.00 | 0.00 | 0.00 | 98 | 1010.6 |
| 20260509071122 | 11 | 115 | 1.6 | 3.2 | 0.00 | 0.00 | 0.00 | 98 | 1010.5 |
| 20260509070123 | 11 | 108 | 1.6 | 4.8 | 0.00 | 0.00 | 0.00 | 98 | 1010.6 |
| 20260509065143 | 11 | 92 | 1.6 | 4.8 | 0.00 | 0.00 | 0.00 | 98 | 1010.6 |
| 20260509064145 | 11 | 90 | 1.6 | 3.2 | 0.00 | 0.00 | 0.00 | 98 | 1010.7 |
| 20260509063124 | 11 | 89 | 1.6 | 4.8 | 0.00 | 0.00 | 0.00 | 98 | 1011.0 |
| 20260509062122 | 10 | 122 | 1.6 | 3.2 | 0.00 | 0.00 | 0.00 | 99 | 1011.2 |
| 20260509061122 | 10 | 91 | 1.6 | 3.2 | 0.00 | 0.00 | 0.00 | 99 | 1011.5 |
| 20260509060143 | 10 | 88 | 1.6 | 4.8 | 0.00 | 0.00 | 0.00 | 98 | 1011.5 |
| 20260509055122 | 10 | 132 | 1.6 | 4.8 | 0.00 | 0.00 | 0.00 | 98 | 1011.5 |
| 20260509054122 | 10 | 217 | 0.0 | 3.2 | 0.00 | 0.00 | 0.00 | 97 | 1011.5 |
| 20260509053122 | 10 | 218 | 0.0 | 3.2 | 0.00 | 0.00 | 0.00 | 97 | 1011.5 |
| 20260509052122 | 10 | 242 | 0.0 | 3.2 | 0.00 | 0.00 | 0.00 | 97 | 1011.5 |
| 20260509051142 | 10 | 131 | 0.0 | 1.6 | 0.00 | 0.00 | 0.00 | 98 | 1011.2 |
| 20260509050121 | 9 | 113 | 0.0 | 0.0 | 0.00 | 0.00 | 0.00 | 96 | 1011.1 |
| 20260509045142 | 9 | 338 | 0.0 | 0.0 | 0.00 | 0.00 | 0.00 | 95 | 1011.1 |
| 20260509044121 | 9 | 113 | 0.0 | 0.0 | 0.00 | 0.00 | 0.00 | 93 | 1011.2 |
| 20260509043143 | 10 | 23 | 0.0 | 0.0 | 0.00 | 0.00 | 0.00 | 93 | 1011.2 |
| 20260509042121 | 10 | 96 | 0.0 | 3.2 | 0.00 | 0.00 | 0.00 | 93 | 1011.2 |
| 20260509041121 | 10 | 92 | 0.0 | 1.6 | 0.00 | 0.00 | 0.00 | 91 | 1011.2 |
| 20260509040125 | 10 | 97 | 0.0 | 3.2 | 0.00 | 0.00 | 0.00 | 89 | 1011.2 |
| 20260509035125 | 11 | 113 | 0.0 | 0.0 | 0.00 | 0.00 | 0.00 | 87 | 1011.2 |
| 20260509034121 | 11 | 180 | 0.0 | 0.0 | 0.00 | 0.00 | 0.00 | 86 | 1011.5 |
| 20260509033121 | 11 | 23 | 0.0 | 0.0 | 0.00 | 0.00 | 0.00 | 86 | 1011.4 |
| 20260509032121 | 11 | 81 | 0.0 | 3.2 | 0.00 | 0.00 | 0.00 | 86 | 1011.6 |
| 20260509031121 | 11 | 95 | 0.0 | 3.2 | 0.00 | 0.00 | 0.00 | 86 | 1011.6 |
| 20260509030122 | 12 | 208 | 0.0 | 3.2 | 0.00 | 0.00 | 0.00 | 86 | 1011.7 |
| 20260509025126 | 12 | 180 | 0.0 | 3.2 | 0.00 | 0.00 | 0.00 | 85 | 1011.7 |
| 20260509024126 | 12 | 169 | 0.0 | 3.2 | 0.00 | 0.00 | 0.00 | 85 | 1011.7 |
| 20260509023126 | 12 | 176 | 1.6 | 4.8 | 0.00 | 0.00 | 0.00 | 84 | 1011.6 |
| 20260509022122 | 12 | 165 | 1.6 | 4.8 | 0.00 | 0.00 | 0.00 | 83 | 1011.7 |
| 20260509021123 | 12 | 172 | 1.6 | 4.8 | 0.00 | 0.00 | 0.00 | 82 | 1011.5 |
| 20260509020122 | 12 | 295 | 3.2 | 4.8 | 0.00 | 0.00 | 0.00 | 81 | 1011.4 |
| 20260509015122 | 12 | 286 | 3.2 | 4.8 | 0.00 | 0.00 | 0.00 | 81 | 1011.4 |
| 20260509014123 | 12 | 202 | 3.2 | 4.8 | 0.00 | 0.00 | 0.00 | 81 | 1011.2 |
| 20260509013123 | 12 | 255 | 1.6 | 4.8 | 0.00 | 0.00 | 0.00 | 81 | 1011.1 |
| 20260509012123 | 12 | 133 | 1.6 | 6.4 | 0.00 | 0.00 | 0.00 | 80 | 1010.9 |
| 20260509011121 | 12 | 168 | 1.6 | 6.4 | 0.00 | 0.00 | 0.00 | 80 | 1010.7 |
| 20260509010121 | 12 | 196 | 1.6 | 4.8 | 0.00 | 0.00 | 0.00 | 79 | 1010.4 |
| 20260509005121 | 12 | 136 | 3.2 | 8.0 | 0.00 | 0.00 | 0.00 | 78 | 1010.4 |
| 20260509004121 | 13 | 146 | 3.2 | 6.4 | 0.00 | 0.00 | 0.00 | 77 | 1010.4 |
| 20260509003121 | 13 | 149 | 1.6 | 4.8 | 0.00 | 0.00 | 0.00 | 72 | 1010.2 |
| 20260509002121 | 13 | 118 | 0.0 | 3.2 | 0.00 | 0.00 | 0.00 | 70 | 1010.2 |
| 20260509001121 | 13 | 87 | 0.0 | 3.2 | 0.00 | 0.00 | 0.00 | 69 | 1010.2 |
| 20260509000142 | 13 | 90 | 0.0 | 3.2 | 0.00 | 0.00 | 0.00 | 67 | 1010.1 |
| 20260508235121 | 13 | 63 | 0.0 | 4.8 | 0.00 | 0.00 | 0.00 | 65 | 1010.1 |
| 20260508234121 | 14 | 54 | 1.6 | 4.8 | 0.00 | 0.00 | 0.00 | 64 | 1009.8 |
| 20260508233121 | 15 | 83 | 3.2 | 6.4 | 0.00 | 0.00 | 0.00 | 62 | 1009.7 |
| 20260508232121 | 15 | 59 | 4.8 | 9.7 | 0.00 | 0.00 | 0.00 | 62 | 1009.7 |
| 20260508231123 | 15 | 55 | 3.2 | 6.4 | 0.00 | 0.00 | 0.00 | 60 | 1009.6 |
| 20260508230122 | 15 | 280 | 1.6 | 4.8 | 0.00 | 0.00 | 0.00 | 60 | 1009.5 |
| 20260508225122 | 15 | 75 | 3.2 | 4.8 | 0.00 | 0.00 | 0.00 | 60 | 1009.5 |
| 20260508224121 | 15 | 105 | 4.8 | 6.4 | 0.00 | 0.00 | 0.00 | 60 | 1009.6 |
| 20260508223124 | 16 | 352 | 4.8 | 6.4 | 0.00 | 0.00 | 0.00 | 59 | 1009.7 |
| 20260508222143 | 16 | 312 | 4.8 | 8.0 | 0.00 | 0.00 | 0.00 | 59 | 1009.5 |
| 20260508221122 | 16 | 307 | 6.4 | 9.7 | 0.00 | 0.00 | 0.00 | 57 | 1009.4 |
| 20260508220122 | 16 | 351 | 4.8 | 9.7 | 0.00 | 0.00 | 0.00 | 56 | 1009.6 |
| 20260508215123 | 16 | 333 | 4.8 | 11.3 | 0.00 | 0.00 | 0.00 | 57 | 1009.6 |
| 20260508214122 | 16 | 251 | 4.8 | 9.7 | 0.00 | 0.00 | 0.00 | 58 | 1009.7 |
| 20260508213122 | 16 | 333 | 6.4 | 9.7 | 0.00 | 0.00 | 0.00 | 55 | 1009.7 |
| 20260508212123 | 16 | 237 | 4.8 | 8.0 | 0.00 | 0.00 | 0.00 | 55 | 1009.7 |
| 20260508211124 | 17 | 338 | 4.8 | 9.7 | 0.00 | 0.00 | 0.00 | 54 | 1009.7 |
| 20260508210144 | 17 | 308 | 4.8 | 8.0 | 0.00 | 0.00 | 0.00 | 53 | 1009.7 |
| 20260508205122 | 16 | 180 | 4.8 | 8.0 | 0.00 | 0.00 | 0.00 | 57 | 1009.7 |
| 20260508204122 | 16 | 326 | 6.4 | 12.9 | 0.00 | 0.00 | 0.00 | 55 | 1009.7 |
| 20260508203122 | 16 | 329 | 8.0 | 12.9 | 0.00 | 0.00 | 0.00 | 55 | 1009.6 |
| 20260508202142 | 16 | 315 | 6.4 | 12.9 | 0.00 | 0.00 | 0.00 | 58 | 1009.8 |
| 20260508201121 | 15 | 293 | 9.7 | 16.1 | 0.00 | 0.00 | 0.00 | 58 | 1009.4 |
| 20260508200123 | 17 | 282 | 9.7 | 20.9 | 0.00 | 0.00 | 0.00 | 50 | 1009.2 |
| 20260508195124 | 18 | 283 | 6.4 | 12.9 | 0.00 | 0.00 | 0.00 | 44 | 1009.2 |
| 20260508194121 | 18 | 304 | 4.8 | 9.7 | 0.00 | 0.00 | 0.00 | 45 | 1009.2 |
| 20260508193121 | 17 | 273 | 4.8 | 9.7 | 0.00 | 0.00 | 0.00 | 46 | 1009.5 |
| 20260508192121 | 17 | 265 | 4.8 | 11.3 | 0.00 | 0.00 | 0.00 | 46 | 1009.6 |
| 20260508191121 | 17 | 306 | 4.8 | 14.5 | 0.00 | 0.00 | 0.00 | 45 | 1009.6 |
| 20260508190121 | 17 | 260 | 6.4 | 12.9 | 0.00 | 0.00 | 0.00 | 43 | 1009.6 |
| 20260508185121 | 18 | 292 | 6.4 | 12.9 | 0.00 | 0.00 | 0.00 | 42 | 1009.5 |
| 20260508184125 | 18 | 262 | 8.0 | 14.5 | 0.00 | 0.00 | 0.00 | 41 | 1009.5 |
| 20260508183145 | 18 | 268 | 9.7 | 19.3 | 0.00 | 0.00 | 0.00 | 42 | 1009.6 |
| 20260508182122 | 19 | 282 | 8.0 | 12.9 | 0.00 | 0.00 | 0.00 | 40 | 1009.6 |
| 20260508181143 | 21 | 280 | 8.0 | 16.1 | 0.00 | 0.00 | 0.00 | 39 | 1009.7 |
| 20260508180122 | 20 | 277 | 9.7 | 16.1 | 0.00 | 0.00 | 0.00 | 40 | 1009.7 |
| 20260508175123 | 21 | 268 | 8.0 | 16.1 | 0.00 | 0.00 | 0.00 | 38 | 1009.7 |
| 20260508174123 | 20 | 265 | 9.7 | 24.1 | 0.00 | 0.00 | 0.00 | 40 | 1009.7 |
| 20260508173146 | 20 | 239 | 9.7 | 20.9 | 0.00 | 0.00 | 0.00 | 39 | 1009.9 |
| 20260508172122 | 20 | 297 | 9.7 | 24.1 | 0.00 | 0.00 | 0.00 | 41 | 1009.7 |
| 20260508171126 | 19 | 263 | 8.0 | 27.4 | 0.00 | 0.00 | 0.00 | 42 | 1009.9 |
| 20260508171121 | 19 | 262 | 8.0 | 27.4 | 0.00 | 0.00 | 0.00 | 42 | 1009.9 |
| 20260508170122 | 19 | 268 | 8.0 | 20.9 | 0.00 | 0.00 | 0.00 | 40 | 1010.1 |
| 20260508165122 | 19 | 270 | 8.0 | 19.3 | 0.00 | 0.00 | 0.00 | 41 | 1010.1 |
| 20260508164144 | 18 | 267 | 9.7 | 17.7 | 0.00 | 0.00 | 0.00 | 42 | 1010.0 |
| 20260508163122 | 17 | 233 | 11.3 | 19.3 | 0.00 | 0.00 | 0.00 | 42 | 1010.1 |
| 20260508162121 | 18 | 290 | 8.0 | 17.7 | 0.00 | 0.00 | 0.00 | 42 | 1010.2 |
| 20260508161122 | 18 | 283 | 6.4 | 11.3 | 0.00 | 0.00 | 0.00 | 42 | 1010.2 |
| 20260508160122 | 18 | 296 | 9.7 | 20.9 | 0.00 | 0.00 | 0.00 | 42 | 1010.2 |
| 20260508155121 | 18 | 301 | 11.3 | 25.7 | 0.00 | 0.00 | 0.00 | 41 | 1010.2 |